Location: F M Corners
(41.2198°N, 80.4709°W)
Time: 16:48:11
(UTC+00:00)

NOSS 3-3 (C) - Pass Details

Date: 29 October 2020
Orbit: 825 x 1387 km, 63.4° (Epoch: 22 November)

Event Time Altitude Azimuth Distance (km) Brightness Sun altitude
Rises 23:23:41 0° 207° (SSW) 3,376 7.3 -12.4°
Reaches altitude 10° 23:26:03 10° 205° (SSW) 2,476 6.6 -12.9°
Maximum altitude 23:31:43 74° 121° (ESE) 948 3.8 -13.9°
Drops below altitude 10° 23:38:05 10° 38° (NE) 2,775 6.0 -15.1°
Enters shadow 23:38:38 - 38° (NE) 2,975 6.1 -15.2°
